Date,TemperatureHighF,TemperatureAvgF,TemperatureLowF,DewpointHighF,DewpointAvgF,DewpointLowF,HumidityHigh,HumidityAvg,HumidityLow,PressureMaxIn,PressureMinIn,WindSpeedMaxMPH,WindSpeedAvgMPH,GustSpeedMaxMPH,PrecipitationSumIn
2013-9-1,85.5,75.9,68.6,76.2,68.8,60.8,95,80,62,29.90,29.69,38,2,38,1.44
2013-9-2,80.7,71.2,61.2,66.1,60.5,56.2,90,70,49,30.01,29.90,11,2,11,0.00
2013-9-3,84.5,70.8,57.6,63.0,57.6,53.7,87,65,40,30.07,29.98,6,0,6,0.00
2013-9-4,84.9,70.7,56.6,67.5,59.2,53.4,91,70,44,30.13,30.01,6,0,6,0.01
2013-9-5,86.5,73.1,58.7,70.0,61.6,56.0,93,70,47,30.16,30.06,7,0,7,0.00
2013-9-6,89.0,77.2,65.6,68.8,63.6,58.6,84,64,45,30.09,29.93,9,1,9,0.00
2013-9-7,95.1,81.6,70.4,69.5,65.9,61.3,78,61,40,29.94,29.82,12,2,12,0.00
2013-9-8,98.5,85.8,74.9,71.7,66.7,64.5,72,55,34,29.84,29.74,7,2,11,0.00
2013-9-9,93.8,83.0,73.3,68.7,63.5,58.2,73,54,32,29.88,29.80,20,2,20,0.00
2013-9-10,92.7,81.9,72.7,68.9,64.0,60.9,72,56,39,30.01,29.88,14,3,14,0.00
2013-9-11,92.7,80.6,67.1,67.4,61.5,55.6,78,55,31,30.07,29.96,11,1,11,0.00
2013-9-12,83.6,76.5,70.4,72.4,64.2,46.8,90,67,43,30.08,29.99,12,2,12,0.04
2013-9-13,74.6,65.7,52.8,54.0,47.5,42.4,70,53,40,30.14,30.02,15,1,15,0.00
2013-9-14,78.1,65.4,52.3,55.1,49.8,43.4,75,58,41,30.08,29.92,6,1,10,0.00
2013-9-15,85.7,72.2,64.7,65.9,58.9,51.5,84,64,50,30.08,29.90,15,3,15,0.02
2013-9-16,65.6,60.7,59.3,60.9,58.8,57.6,97,94,84,30.21,30.08,13,2,13,0.29
2013-9-17,71.3,65.4,61.0,70.2,64.7,60.2,100,98,94,30.16,29.94,8,2,12,0.56
2013-9-18,88.0,76.5,67.3,75.4,69.5,66.7,99,81,56,29.94,29.76,15,2,15,0.01
2013-9-19,91.0,78.0,67.3,71.2,67.3,61.3,92,72,46,29.87,29.67,18,4,18,0.79
2013-9-20,69.1,62.4,50.8,65.2,53.5,43.8,93,74,52,30.01,29.84,13,3,13,0.01
2013-9-21,74.6,59.6,46.1,55.6,48.7,43.0,91,70,42,30.03,29.90,7,0,7,0.00
2013-9-22,75.6,63.5,51.9,55.5,50.0,46.0,82,63,41,29.96,29.84,11,1,11,0.00
2013-9-23,75.8,64.7,53.8,57.1,52.3,47.6,84,65,47,29.90,29.75,15,2,15,0.00
2013-9-24,68.3,64.0,59.5,59.9,56.4,53.4,87,76,67,29.82,29.72,11,2,11,0.00
2013-9-25,77.2,65.0,55.9,68.1,60.3,54.0,97,85,68,29.87,29.79,8,1,8,0.01
2013-9-26,84.5,71.5,59.5,66.3,60.4,57.5,93,71,44,29.88,29.80,17,2,17,0.00
2013-9-27,85.7,74.4,65.8,67.7,61.5,58.8,83,66,45,29.92,29.81,12,2,12,0.00
2013-9-28,72.7,65.0,52.6,65.7,58.7,49.3,94,81,66,30.03,29.76,12,2,12,0.31
2013-9-29,73.0,57.7,42.9,61.0,49.5,41.6,97,77,49,30.09,29.94,2,0,7,0.01
2013-9-30,77.9,62.0,44.8,62.1,53.8,42.3,93,76,57,29.94,29.80,4,1,10,0.01